Pagrindinis puslapis
METAR-TAF:

METAR-TAF

Oro uostai :

Winston Field

Snyder, Teksasas, Jungtinės Amerikos Valstijos

platuma: 32-41-36N, ilguma: 100-57-01W, Aukštis: 741 m

Dabartinis oras

Ataskaita buvo paskelbta 23 minutes, ne 10:55 UTC
Vėjas 8 kt iš Pietų/Pietryčių
Temperatūra 14°C
Drėgmė 41%
Slėgis 1022 hPa
Matomumas: 16.1 km
Giedras dangus

METAR: KSNK 231055Z AUTO 15008KT 10SM CLR 14/01 A3017 RMK AO2 T01360005

Laikas: 06:18 (11:18 UTC)


TAF: trūkstamas

Orai ataskaitas ir orų prognozės (METAR, TAF).

turimą stotys yra geltonos ir raudonos taškus žemėlapyje.

Perkelti pele per norėdami pamatyti stoties vardą.

Tada spustelėkite, norėdami matyti oro stebėjimo ir prognozės.

Norėdami pakeisti žemėlapį: spustelėkite ant žalios mygtukų su juodo kryžiaus žemyn,; žalią mygtuką su brūkšneliu, jei norite nutolinti; arba žalių rodyklių gretimoms žemėlapius.


METAR-TAF: